Flag for Canada

Past Weather in Coral Harbour, Nunavut, Canada — Yesterday and Last 2 Weeks

Now
54 °F

Partly sunny.


Feels Like: 51 °F
Forecast: 54 / 42 °F
Wind: 8 mph from Southwest

Location: Coral Harbour

Current Time: Jul 10, 2020 at 3:12:46 pm

Latest Report: Jul 10, 2020 at 2:00 pm


Visibility: 15 mi

Pressure: 29.87 "Hg

Humidity: 77%

Dew Point: 46 °F

Location of Coral HarbourLocation

Past Weather in Coral Harbour — Graph

°F

Coral Harbour Temperature Yesterday

Maximum temperature yesterday: 52 °F (at 1:00 pm)
Minimum temperature yesterday: 41 °F (at 2:00 am)
Average temperature yesterday: 48 °F

High & Low Weather Summary for the Past Weeks

 TemperatureHumidityPressure
High75 °F (Jul 1, 3:00 pm)100% (Jun 30, 4:00 am)30.25 "Hg (Jun 30, 4:00 am)
Low41 °F (Jun 30, 3:00 am)33% (Jul 1, 5:00 pm)29.49 "Hg (Jul 7, 12:00 pm)
Average54 °F75%29.91 "Hg
* Reported Jun 25 1:00 pm — Jul 10 1:00 pm, Coral Harbour. Weather by CustomWeather, © 2020

Note: Actual official high and low records may vary slightly from our data, if they occured in-between our weather recording intervals... More about our weather records

Coral Harbour Weather History for the Previous 24 Hours

Scroll right to see more
 ConditionsComfort  
Time TempWeatherWind HumidityBarometerVisibility
1:00 pm
Fri, Jul 10
52 °FBroken clouds.6 mph82%29.86 "Hg15 mi
12:00 pm50 °FBroken clouds.7 mph76%29.86 "Hg15 mi
11:00 am50 °FOvercast.5 mph76%29.86 "Hg15 mi
10:00 am48 °FBroken clouds.3 mph94%29.86 "Hg15 mi
9:37 am48 °FMostly cloudy.5 mph87%29.86 "Hg15 mi
9:08 am46 °FPartly sunny.3 mph87%29.87 "Hg15 mi
8:25 am46 °FLight rain. Mostly cloudy.6 mph87%29.86 "Hg15 mi
8:00 am46 °FMostly cloudy.6 mph87%29.87 "Hg15 mi
7:34 am46 °FLow clouds.5 mph87%29.87 "Hg15 mi
7:00 am46 °FOvercast.5 mph87%29.86 "Hg15 mi
6:00 am45 °FMore clouds than sun.5 mph87%29.86 "Hg15 mi
5:00 am45 °FLow clouds.6 mph93%29.85 "Hg15 mi
4:00 am45 °FLow clouds.7 mph93%29.85 "Hg15 mi
3:00 am45 °FLight rain. Mostly cloudy.7 mph93%29.86 "Hg15 mi
2:00 am45 °FLight rain. Mostly cloudy.7 mph87%29.86 "Hg15 mi
1:24 am45 °FDrizzle. Mostly cloudy.8 mph93%29.86 "Hg15 mi
1:00 am45 °FMostly cloudy.9 mph93%29.86 "Hg15 mi
12:00 am46 °FPassing clouds.7 mph93%29.86 "Hg15 mi
11:00 pm
Thu, Jul 9
46 °FLight rain. Mostly cloudy.8 mph87%29.86 "Hg15 mi
10:00 pm46 °FLight rain. Mostly cloudy.6 mph87%29.86 "Hg15 mi
9:00 pm46 °FLight rain. More clouds than sun.7 mph82%29.86 "Hg15 mi
8:40 pm48 °FLight rain. More clouds than sun.6 mph76%29.86 "Hg15 mi
8:00 pm48 °FMore clouds than sun.8 mph71%29.86 "Hg15 mi
7:00 pm48 °FPartly sunny.7 mph76%29.86 "Hg15 mi
6:00 pm50 °FOvercast.10 mph67%29.86 "Hg15 mi
5:00 pm52 °FPartly sunny.9 mph67%29.85 "Hg15 mi
4:00 pm50 °FPartly sunny.9 mph71%29.85 "Hg15 mi
3:00 pm50 °FMostly cloudy.9 mph76%29.86 "Hg15 mi
Weather by CustomWeather, © 2020

See weather overview